Tracking 20475 objects as of 27-Feb-2020
HD Live streaming from Space Station
objects crossing your sky now

COSMOS 1410

Track COSMOS 1410 now!
10-day predictions
COSMOS 1410 is classified as:


NORAD ID: 13589
Int'l Code: 1982-096A
Perigee: 1,499.8 km
Apogee: 1,508.1 km
Inclination: 82.6 °
Period: 115.9 minutes
Semi major axis: 7874 km
RCS: 11.571 m2 (large)
Launch date: September 24, 1982
Source: Commonwealth of Independent States (former USSR) (CIS)
Launch site: PLESETSK MISSILE AND SPACE COMPLEX (PKMTR)
aabbcc
Your satellite tracking list
Your tracking list is empty




NASA's NSSDC Master Catalog

Two Line Element Set (TLE):
1 13589U 82096A   20057.15965138  .00000011  00000-0  59054-5 0  9993
2 13589  82.6053  82.0684 0005262 305.2027 165.2257 12.42310930697997
Source of the keplerian elements: AFSPC